Flag Weather past 2 weeks in Pierre, South Dakota, U.S.A.

Now
19 °F

Clear.


Feels Like: 12 °F
Forecast: 20 / 39 °F
Wind: 5 mph from East

Location: Pierre Regional Airport

Current Time: Nov 28, 2014 at 6:53:53 AM

Latest Report: Nov 28, 2014 at 5:53 AM


Visibility: 10 mi

Pressure: 29.81 "Hg

Humidity: 88%

Dew point: 16 °F

Location of PierreLocation

Historic Weather in Pierre — Graph

°F

Pierre temperature yesterday

Maximum temperature yesterday: 26 °F (at 7:53 PM)
Minimum temperature yesterday: 8 °F (at 1:53 AM)
Average temperature yesterday: 18 °F

Past Weeks' High & Low Weather Summary

 TemperatureHumidityPressure
High44 °F (Nov 22, 2:53 PM)96% (Nov 14, 12:04 AM)30.71 "Hg (Nov 14, 12:04 AM)
Low-7 °F (Nov 14, 12:04 AM)36% (Nov 24, 2:53 PM)29.39 "Hg (Nov 22, 2:53 PM)
Average20 °F76%30.09 "Hg
* Reported Nov 13 5:53 AM — Nov 28 5:53 AM, Pierre, Weather by CustomWeather, © 2014

Note: Actual official high and low records may vary slightly from our data, if they occured in-between our weather recording intervals... More about our weather records

Advertising

Pierre weather history for previous 24 hours

 ConditionsComfort  
Time TempWeatherWind HumidityBarometerVisibility
5:53 AM
Nov 28
19 °FClear.5 mph88%29.81 "Hg10 mi
4:53 AM19 °FClear.3 mph85%29.83 "Hg10 mi
3:53 AM18 °FClear.6 mph88%29.86 "Hg10 mi
2:53 AM20 °FClear.5 mph89%29.87 "Hg10 mi
1:53 AM20 °FClear.No wind89%29.87 "Hg10 mi
12:53 AM19 °FClear.No wind85%29.90 "Hg10 mi
11:53 PM
Nov 27
20 °FClear.No wind85%29.92 "Hg10 mi
10:53 PM20 °FClear.3 mph85%29.93 "Hg10 mi
9:53 PM22 °FClear.6 mph78%29.95 "Hg10 mi
8:53 PM26 °FOvercast.12 mph69%29.97 "Hg10 mi
7:53 PM26 °FOvercast.14 mph69%29.99 "Hg10 mi
6:53 PM25 °FOvercast.17 mph69%30.01 "Hg10 mi
5:53 PM24 °FOvercast.16 mph71%30.05 "Hg10 mi
4:53 PM24 °FOvercast.14 mph68%30.09 "Hg10 mi
3:53 PM24 °FOvercast.14 mph68%30.12 "Hg10 mi
2:53 PM24 °FOvercast.20 mph65%30.15 "Hg10 mi
1:53 PM21 °FOvercast.20 mph71%30.20 "Hg10 mi
12:53 PM20 °FMostly cloudy.18 mph68%30.23 "Hg10 mi
11:53 AM19 °FOvercast.16 mph71%30.29 "Hg10 mi
10:53 AM16 °FMostly cloudy.17 mph77%30.35 "Hg10 mi
9:53 AM14 °FMostly cloudy.18 mph77%30.39 "Hg10 mi
8:53 AM13 °FOvercast.17 mph81%30.41 "Hg10 mi
7:53 AM12 °FOvercast.14 mph84%30.42 "Hg10 mi
6:53 AM11 °FOvercast.14 mph88%30.44 "Hg10 mi
Weather by CustomWeather, © 2014

See weather overviewHow to use our weather pages